WAT4470 KDAB-KPNS

Flight info

Callsign WAT4470
Flight time 1h 43m
Altitude 16000
Route ROYES7 CRG SHRKS
Aircraft SW4/L-SDFGIRY/S

Departure

Time 2026-05-07 10:40
Airport Daytona Beach International Airport (KDAB)

Arrival

Time 2026-05-07 12:24
Airport Pensacola International Airport (KPNS)
Time Latitude Longitude Altitude Speed Heading
2026-05-07 10:09 29.18585 -81.05658 31 ft 0 kts 249°
2026-05-07 10:24 29.18599 -81.05673 31 ft 6 kts
2026-05-07 10:24 29.18625 -81.05611 32 ft 10 kts 71°
2026-05-07 10:25 29.18692 -81.05594 32 ft 13 kts 350°
2026-05-07 10:25 29.18793 -81.05636 32 ft 16 kts 336°
2026-05-07 10:25 29.18907 -81.05692 32 ft 18 kts 336°
2026-05-07 10:25 29.19009 -81.05730 32 ft 12 kts
2026-05-07 10:26 29.19050 -81.05701 32 ft 0 kts 68°
2026-05-07 10:38 29.19060 -81.05675 32 ft 7 kts 66°
2026-05-07 10:38 29.19049 -81.05616 32 ft 8 kts 142°
2026-05-07 10:38 29.19036 -81.05608 32 ft 0 kts 159°
2026-05-07 10:40 29.18999 -81.05592 32 ft 15 kts 157°
2026-05-07 10:40 29.18551 -81.05378 31 ft 121 kts 157°
2026-05-07 10:40 29.17653 -81.04945 297 ft 151 kts 160°
2026-05-07 10:40 29.16567 -81.04481 763 ft 178 kts 158°
2026-05-07 10:41 29.15799 -81.04059 1133 ft 189 kts 156°
2026-05-07 10:41 29.14187 -81.03181 1989 ft 197 kts 154°
2026-05-07 10:41 29.12959 -81.02508 2644 ft 199 kts 155°
2026-05-07 10:41 29.11720 -81.01828 3297 ft 200 kts 155°
2026-05-07 10:42 29.10439 -81.01122 3764 ft 209 kts 155°
2026-05-07 10:42 29.09108 -81.00375 4222 ft 215 kts 155°
2026-05-07 10:42 29.07767 -80.99603 4697 ft 218 kts 155°
2026-05-07 10:42 29.06404 -80.98851 5173 ft 217 kts 165°
2026-05-07 10:43 29.04938 -80.98987 5599 ft 215 kts 207°
2026-05-07 10:43 29.03938 -81.00203 6026 ft 217 kts 246°
2026-05-07 10:43 29.03879 -81.01905 6449 ft 223 kts 286°
2026-05-07 10:43 29.04825 -81.03300 6876 ft 228 kts 323°
2026-05-07 10:44 29.06122 -81.04324 7335 ft 226 kts 323°
2026-05-07 10:44 29.07414 -81.05354 7784 ft 225 kts 323°
2026-05-07 10:44 29.08687 -81.06371 8216 ft 224 kts 323°
2026-05-07 10:44 29.09958 -81.07388 8639 ft 223 kts 323°
2026-05-07 10:45 29.11232 -81.08407 9053 ft 222 kts 323°
2026-05-07 10:45 29.12491 -81.09412 9452 ft 221 kts 323°
2026-05-07 10:45 29.13741 -81.10411 9838 ft 220 kts 323°
2026-05-07 10:45 29.15004 -81.11420 10218 ft 220 kts 323°
2026-05-07 10:46 29.16253 -81.12417 10596 ft 220 kts 323°
2026-05-07 10:46 29.17502 -81.13412 10976 ft 219 kts 322°
2026-05-07 10:46 29.18757 -81.14413 11358 ft 218 kts 322°
2026-05-07 10:46 29.19997 -81.15401 11734 ft 217 kts 322°
2026-05-07 10:47 29.21219 -81.16374 12100 ft 216 kts 321°
2026-05-07 10:47 29.22450 -81.17355 12467 ft 215 kts 321°
2026-05-07 10:47 29.23666 -81.18325 12827 ft 214 kts 321°
2026-05-07 10:47 29.24894 -81.19297 13194 ft 213 kts 323°
2026-05-07 10:48 29.26097 -81.20220 13584 ft 209 kts 321°
2026-05-07 10:48 29.27293 -81.21170 13966 ft 206 kts 321°
2026-05-07 10:48 29.28459 -81.22099 14332 ft 206 kts 320°
2026-05-07 10:48 29.29629 -81.23031 14703 ft 204 kts 320°
2026-05-07 10:49 29.30795 -81.23959 15064 ft 201 kts 320°
2026-05-07 10:49 29.31930 -81.24863 15407 ft 199 kts 320°
2026-05-07 10:49 29.33067 -81.25768 15746 ft 197 kts 320°
2026-05-07 10:49 29.34180 -81.26653 16060 ft 197 kts 321°
2026-05-07 10:50 29.35369 -81.27604 16016 ft 215 kts 320°
2026-05-07 10:50 29.36622 -81.28606 16014 ft 229 kts 319°
2026-05-07 10:50 29.37974 -81.29689 16009 ft 239 kts 320°
2026-05-07 10:50 29.39353 -81.30791 16005 ft 247 kts 320°
2026-05-07 10:51 29.40784 -81.31937 15990 ft 252 kts 320°
2026-05-07 10:51 29.42222 -81.33086 15984 ft 255 kts 320°
2026-05-07 10:51 29.43697 -81.34265 15982 ft 257 kts 320°
2026-05-07 10:51 29.45168 -81.35440 15981 ft 259 kts 320°
2026-05-07 10:52 29.46645 -81.36621 15982 ft 260 kts 320°
2026-05-07 10:52 29.48135 -81.37811 15982 ft 261 kts 320°
2026-05-07 10:52 29.49629 -81.39005 15982 ft 262 kts 320°
2026-05-07 10:52 29.51122 -81.40197 15982 ft 262 kts 320°
2026-05-07 10:53 29.52638 -81.41408 15980 ft 263 kts 320°
2026-05-07 10:53 29.54169 -81.42538 15970 ft 268 kts 330°
2026-05-07 10:53 29.56001 -81.43079 15979 ft 274 kts 343°
2026-05-07 10:53 29.57909 -81.43420 15976 ft 276 kts 346°
2026-05-07 10:54 29.59809 -81.43671 15975 ft 278 kts 349°
2026-05-07 10:54 29.61760 -81.43876 15974 ft 278 kts 349°
2026-05-07 10:54 29.63677 -81.44070 15972 ft 278 kts 349°
2026-05-07 10:54 29.65620 -81.44264 15971 ft 279 kts 349°
2026-05-07 10:55 29.67557 -81.44456 15969 ft 279 kts 349°
2026-05-07 10:55 29.69496 -81.44647 15968 ft 279 kts 348°
2026-05-07 10:55 29.71428 -81.44836 15966 ft 279 kts 348°
2026-05-07 10:55 29.73377 -81.45027 15965 ft 279 kts 348°
2026-05-07 10:56 29.75302 -81.45216 15964 ft 279 kts 348°
2026-05-07 10:56 29.77264 -81.45409 15964 ft 279 kts 348°
2026-05-07 10:56 29.79193 -81.45598 15963 ft 279 kts 348°
2026-05-07 10:56 29.81132 -81.45788 15963 ft 279 kts 348°
2026-05-07 10:57 29.83061 -81.45977 15962 ft 279 kts 348°
2026-05-07 10:57 29.85009 -81.46168 15962 ft 279 kts 348°
2026-05-07 10:57 29.86961 -81.46362 15963 ft 279 kts 348°
2026-05-07 10:57 29.88903 -81.46551 15963 ft 279 kts 348°
2026-05-07 10:58 29.90830 -81.46740 15962 ft 279 kts 348°
2026-05-07 10:58 29.92763 -81.46930 15962 ft 279 kts 348°
2026-05-07 10:58 29.94703 -81.47120 15962 ft 279 kts 348°
2026-05-07 10:58 29.96653 -81.47311 15962 ft 279 kts 348°
2026-05-07 10:59 29.98599 -81.47504 15965 ft 279 kts 348°
2026-05-07 10:59 30.00540 -81.47694 15965 ft 279 kts 348°
2026-05-07 10:59 30.02486 -81.47887 15965 ft 279 kts 348°
2026-05-07 10:59 30.04414 -81.48077 15965 ft 279 kts 348°
2026-05-07 11:00 30.06352 -81.48267 15965 ft 280 kts 348°
2026-05-07 11:00 30.08298 -81.48458 15965 ft 280 kts 348°
2026-05-07 11:00 30.10248 -81.48650 15965 ft 280 kts 348°
2026-05-07 11:00 30.12198 -81.48842 15963 ft 280 kts 348°
2026-05-07 11:01 30.14162 -81.49036 15960 ft 281 kts 348°
2026-05-07 11:01 30.16102 -81.49229 15959 ft 281 kts 348°
2026-05-07 11:01 30.18045 -81.49421 15958 ft 281 kts 348°
2026-05-07 11:01 30.19986 -81.49613 15958 ft 281 kts 348°
2026-05-07 11:02 30.21940 -81.49806 15959 ft 281 kts 348°
2026-05-07 11:02 30.23906 -81.50000 15959 ft 281 kts 348°
2026-05-07 11:02 30.25859 -81.50194 15959 ft 281 kts 347°
2026-05-07 11:02 30.27810 -81.50387 15958 ft 281 kts 347°
2026-05-07 11:03 30.29756 -81.50579 15957 ft 281 kts 347°
2026-05-07 11:03 30.31698 -81.50772 15956 ft 281 kts 347°
2026-05-07 11:03 30.33640 -81.51057 15946 ft 272 kts 334°
2026-05-07 11:03 30.35154 -81.52189 15974 ft 259 kts 317°
2026-05-07 11:04 30.36591 -81.53445 15961 ft 259 kts 316°
2026-05-07 11:04 30.38031 -81.54724 15957 ft 260 kts 316°
2026-05-07 11:04 30.39464 -81.56005 15956 ft 260 kts 315°
2026-05-07 11:04 30.40890 -81.57285 15955 ft 260 kts 315°
2026-05-07 11:05 30.42332 -81.58581 15954 ft 260 kts 315°
2026-05-07 11:05 30.43754 -81.59861 15953 ft 260 kts 315°
2026-05-07 11:05 30.45177 -81.61143 15953 ft 260 kts 315°
2026-05-07 11:05 30.46606 -81.62431 15952 ft 260 kts 315°
2026-05-07 11:06 30.48040 -81.63724 15954 ft 260 kts 315°
2026-05-07 11:06 30.49481 -81.65025 15954 ft 260 kts 315°
2026-05-07 11:06 30.50905 -81.66312 15960 ft 261 kts 315°
2026-05-07 11:06 30.52342 -81.67609 15960 ft 261 kts 315°
2026-05-07 11:07 30.53775 -81.68904 15956 ft 262 kts 315°
2026-05-07 11:07 30.55217 -81.70207 15954 ft 262 kts 315°
2026-05-07 11:07 30.56645 -81.71500 15957 ft 262 kts 315°
2026-05-07 11:07 30.58092 -81.72810 15957 ft 262 kts 315°
2026-05-07 11:08 30.59525 -81.74107 15957 ft 262 kts 315°
2026-05-07 11:08 30.60968 -81.75411 15954 ft 262 kts 315°
2026-05-07 11:08 30.62050 -81.76993 15957 ft 245 kts 283°
2026-05-07 11:08 30.62182 -81.78919 15973 ft 241 kts 271°
2026-05-07 11:09 30.62219 -81.80874 15961 ft 242 kts 269°
2026-05-07 11:09 30.62232 -81.82828 15958 ft 242 kts 269°
2026-05-07 11:09 30.62233 -81.84766 15957 ft 242 kts 268°
2026-05-07 11:09 30.62228 -81.86713 15957 ft 242 kts 268°
2026-05-07 11:10 30.62218 -81.88660 15962 ft 242 kts 268°
2026-05-07 11:10 30.62206 -81.90632 15963 ft 242 kts 268°
2026-05-07 11:10 30.62200 -81.92575 15964 ft 243 kts 268°
2026-05-07 11:10 30.62194 -81.94524 15965 ft 243 kts 268°
2026-05-07 11:11 30.62188 -81.96489 15963 ft 243 kts 268°
2026-05-07 11:11 30.62183 -81.98450 15964 ft 243 kts 268°
2026-05-07 11:11 30.62177 -82.00409 15966 ft 243 kts 268°
2026-05-07 11:11 30.62171 -82.02364 15968 ft 243 kts 268°
2026-05-07 11:12 30.62165 -82.04338 15967 ft 243 kts 268°
2026-05-07 11:12 30.62158 -82.06280 15967 ft 243 kts 268°
2026-05-07 11:12 30.62152 -82.08260 15965 ft 242 kts 269°
2026-05-07 11:12 30.62144 -82.10200 15965 ft 242 kts 268°
2026-05-07 11:13 30.62137 -82.12161 15966 ft 241 kts 268°
2026-05-07 11:13 30.62129 -82.14099 15966 ft 241 kts 268°
2026-05-07 11:13 30.62121 -82.16026 15966 ft 241 kts 268°
2026-05-07 11:13 30.62112 -82.17989 15966 ft 241 kts 268°
2026-05-07 11:14 30.62104 -82.19913 15966 ft 241 kts 268°
2026-05-07 11:14 30.62095 -82.21862 15966 ft 241 kts 268°
2026-05-07 11:14 30.62085 -82.23821 15967 ft 240 kts 268°
2026-05-07 11:14 30.62076 -82.25753 15967 ft 240 kts 268°
2026-05-07 11:15 30.62066 -82.27683 15967 ft 240 kts 268°
2026-05-07 11:15 30.62056 -82.29648 15966 ft 240 kts 268°
2026-05-07 11:15 30.62046 -82.31580 15965 ft 240 kts 268°
2026-05-07 11:15 30.62035 -82.33514 15965 ft 240 kts 268°
2026-05-07 11:16 30.62024 -82.35465 15965 ft 240 kts 268°
2026-05-07 11:16 30.62013 -82.37402 15964 ft 240 kts 268°
2026-05-07 11:16 30.62001 -82.39333 15964 ft 240 kts 268°
2026-05-07 11:16 30.61989 -82.41276 15964 ft 240 kts 268°
2026-05-07 11:17 30.61978 -82.43208 15963 ft 240 kts 268°
2026-05-07 11:17 30.61965 -82.45133 15962 ft 239 kts 268°
2026-05-07 11:17 30.61953 -82.47060 15961 ft 239 kts 268°
2026-05-07 11:17 30.61940 -82.48984 15961 ft 239 kts 268°
2026-05-07 11:18 30.61927 -82.50930 15961 ft 239 kts 268°
2026-05-07 11:18 30.61914 -82.52849 15961 ft 239 kts 268°
2026-05-07 11:18 30.61900 -82.54772 15961 ft 239 kts 268°
2026-05-07 11:18 30.61886 -82.56696 15961 ft 238 kts 268°
2026-05-07 11:19 30.61872 -82.58618 15960 ft 238 kts 268°
2026-05-07 11:19 30.61857 -82.60541 15960 ft 238 kts 268°
2026-05-07 11:19 30.61842 -82.62452 15960 ft 238 kts 268°
2026-05-07 11:19 30.61828 -82.64371 15960 ft 238 kts 268°
2026-05-07 11:20 30.61811 -82.66314 15965 ft 238 kts 268°
2026-05-07 11:20 30.61796 -82.68218 15966 ft 238 kts 268°
2026-05-07 11:20 30.61780 -82.70128 15965 ft 238 kts 268°
2026-05-07 11:20 30.61764 -82.72067 15963 ft 238 kts 268°
2026-05-07 11:21 30.61748 -82.73990 15964 ft 238 kts 268°
2026-05-07 11:21 30.61731 -82.75893 15965 ft 238 kts 268°
2026-05-07 11:21 30.61714 -82.77817 15965 ft 238 kts 268°
2026-05-07 11:21 30.61696 -82.79755 15964 ft 238 kts 268°
2026-05-07 11:22 30.61679 -82.81670 15965 ft 238 kts 268°
2026-05-07 11:22 30.61661 -82.83588 15964 ft 238 kts 268°
2026-05-07 11:22 30.61643 -82.85518 15963 ft 238 kts 268°
2026-05-07 11:22 30.61624 -82.87417 15962 ft 238 kts 268°
2026-05-07 11:23 30.61606 -82.89334 15961 ft 238 kts 268°
2026-05-07 11:23 30.61586 -82.91263 15960 ft 238 kts 268°
2026-05-07 11:23 30.61567 -82.93186 15959 ft 237 kts 268°
2026-05-07 11:23 30.61548 -82.95086 15959 ft 237 kts 268°
2026-05-07 11:24 30.61528 -82.97009 15958 ft 237 kts 268°
2026-05-07 11:24 30.61508 -82.98905 15958 ft 237 kts 268°
2026-05-07 11:24 30.61488 -83.00835 15957 ft 237 kts 268°
2026-05-07 11:24 30.61467 -83.02743 15957 ft 237 kts 268°
2026-05-07 11:25 30.61446 -83.04636 15957 ft 237 kts 268°
2026-05-07 11:25 30.61425 -83.06564 15956 ft 237 kts 268°
2026-05-07 11:25 30.61404 -83.08471 15954 ft 237 kts 268°
2026-05-07 11:25 30.61382 -83.10369 15953 ft 237 kts 268°
2026-05-07 11:26 30.61360 -83.12273 15951 ft 236 kts 268°
2026-05-07 11:26 30.61338 -83.14176 15951 ft 236 kts 268°
2026-05-07 11:26 30.61316 -83.16077 15950 ft 236 kts 268°
2026-05-07 11:26 30.61293 -83.17981 15950 ft 236 kts 268°
2026-05-07 11:27 30.61270 -83.19902 15950 ft 236 kts 268°
2026-05-07 11:27 30.61246 -83.21793 15950 ft 236 kts 268°
2026-05-07 11:27 30.61223 -83.23701 15949 ft 236 kts 268°
2026-05-07 11:27 30.61199 -83.25588 15949 ft 236 kts 268°
2026-05-07 11:28 30.61175 -83.27496 15949 ft 236 kts 268°
2026-05-07 11:28 30.61151 -83.29384 15948 ft 236 kts 268°
2026-05-07 11:28 30.61126 -83.31281 15947 ft 236 kts 268°
2026-05-07 11:28 30.61101 -83.33181 15946 ft 236 kts 268°
2026-05-07 11:29 30.61076 -83.35104 15944 ft 236 kts 268°
2026-05-07 11:29 30.61051 -83.36994 15944 ft 235 kts 268°
2026-05-07 11:29 30.61025 -83.38875 15944 ft 235 kts 268°
2026-05-07 11:29 30.60999 -83.40778 15945 ft 235 kts 268°
2026-05-07 11:30 30.60973 -83.42674 15944 ft 235 kts 268°
2026-05-07 11:30 30.60946 -83.44572 15943 ft 235 kts 268°
2026-05-07 11:30 30.60919 -83.46454 15943 ft 235 kts 268°
2026-05-07 11:30 30.60892 -83.48359 15943 ft 235 kts 268°
2026-05-07 11:31 30.60865 -83.50259 15944 ft 235 kts 268°
2026-05-07 11:31 30.60837 -83.52155 15943 ft 235 kts 268°
2026-05-07 11:31 30.60809 -83.54044 15943 ft 235 kts 268°
2026-05-07 11:31 30.60781 -83.55940 15943 ft 235 kts 268°
2026-05-07 11:32 30.60725 -83.59718 15942 ft 235 kts 268°
2026-05-07 11:32 30.60696 -83.61609 15943 ft 234 kts 268°
2026-05-07 11:32 30.60667 -83.63496 15942 ft 234 kts 268°
2026-05-07 11:33 30.60637 -83.65385 15944 ft 234 kts 268°
2026-05-07 11:33 30.60608 -83.67274 15950 ft 235 kts 268°
2026-05-07 11:33 30.60578 -83.69170 15950 ft 235 kts 268°
2026-05-07 11:33 30.60547 -83.71075 15949 ft 236 kts 268°
2026-05-07 11:34 30.60516 -83.72987 15948 ft 236 kts 268°
2026-05-07 11:34 30.60485 -83.74897 15947 ft 237 kts 268°
2026-05-07 11:34 30.60454 -83.76782 15947 ft 237 kts 268°
2026-05-07 11:34 30.60422 -83.78697 15946 ft 237 kts 268°
2026-05-07 11:35 30.60390 -83.80612 15946 ft 237 kts 268°
2026-05-07 11:35 30.60358 -83.82526 15945 ft 237 kts 268°
2026-05-07 11:35 30.60325 -83.84432 15945 ft 237 kts 268°
2026-05-07 11:35 30.60292 -83.86337 15945 ft 237 kts 268°
2026-05-07 11:36 30.60259 -83.88259 15943 ft 237 kts 268°
2026-05-07 11:36 30.60226 -83.90163 15942 ft 237 kts 268°
2026-05-07 11:36 30.60193 -83.92062 15941 ft 237 kts 268°
2026-05-07 11:36 30.60158 -83.93984 15940 ft 237 kts 268°
2026-05-07 11:37 30.60125 -83.95878 15940 ft 237 kts 268°
2026-05-07 11:37 30.60090 -83.97800 15940 ft 237 kts 268°
2026-05-07 11:37 30.60055 -83.99721 15940 ft 237 kts 268°
2026-05-07 11:37 30.60020 -84.01617 15940 ft 237 kts 268°
2026-05-07 11:38 30.59985 -84.03534 15939 ft 237 kts 268°
2026-05-07 11:38 30.59948 -84.05454 15939 ft 237 kts 268°
2026-05-07 11:38 30.59913 -84.07350 15939 ft 237 kts 268°
2026-05-07 11:38 30.59876 -84.09279 15939 ft 237 kts 268°
2026-05-07 11:39 30.59840 -84.11184 15940 ft 236 kts 268°
2026-05-07 11:39 30.59804 -84.13072 15940 ft 236 kts 268°
2026-05-07 11:39 30.59767 -84.14975 15941 ft 236 kts 268°
2026-05-07 11:39 30.59730 -84.16888 15941 ft 236 kts 268°
2026-05-07 11:40 30.59692 -84.18799 15943 ft 236 kts 268°
2026-05-07 11:40 30.59655 -84.20679 15946 ft 236 kts 268°
2026-05-07 11:40 30.59617 -84.22591 15949 ft 236 kts 268°
2026-05-07 11:40 30.59579 -84.24498 15952 ft 236 kts 268°
2026-05-07 11:41 30.59541 -84.26377 15954 ft 236 kts 268°
2026-05-07 11:41 30.59502 -84.28278 15955 ft 236 kts 268°
2026-05-07 11:41 30.59463 -84.30176 15954 ft 236 kts 268°
2026-05-07 11:41 30.59423 -84.32091 15954 ft 236 kts 268°
2026-05-07 11:42 30.59384 -84.33977 15953 ft 236 kts 268°
2026-05-07 11:42 30.59344 -84.35891 15953 ft 236 kts 268°
2026-05-07 11:42 30.59304 -84.37776 15953 ft 236 kts 268°
2026-05-07 11:42 30.59264 -84.39683 15953 ft 235 kts 268°
2026-05-07 11:43 30.59223 -84.41562 15950 ft 235 kts 268°
2026-05-07 11:43 30.59182 -84.43470 15949 ft 235 kts 268°
2026-05-07 11:43 30.59141 -84.45367 15949 ft 235 kts 268°
2026-05-07 11:43 30.59100 -84.47262 15948 ft 234 kts 268°
2026-05-07 11:44 30.59058 -84.49155 15953 ft 234 kts 268°
2026-05-07 11:44 30.59017 -84.51025 15954 ft 234 kts 268°
2026-05-07 11:44 30.58975 -84.52916 15956 ft 234 kts 268°
2026-05-07 11:44 30.58933 -84.54806 15957 ft 234 kts 268°
2026-05-07 11:45 30.58890 -84.56685 15958 ft 234 kts 268°
2026-05-07 11:45 30.58847 -84.58572 15959 ft 234 kts 268°
2026-05-07 11:45 30.58804 -84.60445 15960 ft 234 kts 268°
2026-05-07 11:45 30.58761 -84.62346 15960 ft 233 kts 268°
2026-05-07 11:46 30.58717 -84.64230 15961 ft 233 kts 268°
2026-05-07 11:46 30.58673 -84.66105 15968 ft 233 kts 268°
2026-05-07 11:46 30.58629 -84.67991 15970 ft 234 kts 268°
2026-05-07 11:46 30.58585 -84.69857 15970 ft 234 kts 268°
2026-05-07 11:47 30.58540 -84.71745 15969 ft 234 kts 268°
2026-05-07 11:47 30.58495 -84.73640 15967 ft 235 kts 268°
2026-05-07 11:47 30.58449 -84.75539 15965 ft 235 kts 268°
2026-05-07 11:47 30.58404 -84.77428 15963 ft 235 kts 268°
2026-05-07 11:48 30.58358 -84.79329 15960 ft 235 kts 268°
2026-05-07 11:48 30.58312 -84.81202 15957 ft 235 kts 268°
2026-05-07 11:48 30.58265 -84.83098 15954 ft 235 kts 268°
2026-05-07 11:48 30.58218 -84.84992 15952 ft 234 kts 268°
2026-05-07 11:49 30.58171 -84.86889 15949 ft 234 kts 268°
2026-05-07 11:49 30.58124 -84.88761 15947 ft 234 kts 268°
2026-05-07 11:49 30.58077 -84.90647 15945 ft 234 kts 268°
2026-05-07 11:49 30.58029 -84.92542 15943 ft 234 kts 268°
2026-05-07 11:50 30.57981 -84.94415 15941 ft 234 kts 268°
2026-05-07 11:50 30.57933 -84.96300 15939 ft 234 kts 268°
2026-05-07 11:50 30.57884 -84.98198 15937 ft 233 kts 268°
2026-05-07 11:50 30.57836 -85.00065 15935 ft 233 kts 268°
2026-05-07 11:51 30.57787 -85.01942 15932 ft 233 kts 268°
2026-05-07 11:51 30.57738 -85.03820 15931 ft 233 kts 268°
2026-05-07 11:51 30.57688 -85.05720 15930 ft 233 kts 268°
2026-05-07 11:51 30.57638 -85.07597 15929 ft 233 kts 268°
2026-05-07 11:52 30.57589 -85.09460 15930 ft 233 kts 268°
2026-05-07 11:52 30.57538 -85.11342 15930 ft 233 kts 268°
2026-05-07 11:52 30.57488 -85.13216 15930 ft 233 kts 268°
2026-05-07 11:52 30.57437 -85.15099 15930 ft 233 kts 268°
2026-05-07 11:53 30.57386 -85.16958 15930 ft 233 kts 268°
2026-05-07 11:53 30.57335 -85.18835 15929 ft 233 kts 268°
2026-05-07 11:53 30.57283 -85.20737 15929 ft 233 kts 268°
2026-05-07 11:53 30.57231 -85.22614 15928 ft 233 kts 268°
2026-05-07 11:54 30.57180 -85.24463 15928 ft 233 kts 268°
2026-05-07 11:54 30.57127 -85.26340 15927 ft 233 kts 268°
2026-05-07 11:54 30.57074 -85.28236 15926 ft 233 kts 268°
2026-05-07 11:54 30.57022 -85.30089 15925 ft 233 kts 268°
2026-05-07 11:55 30.56969 -85.31971 15922 ft 233 kts 268°
2026-05-07 11:55 30.56915 -85.33845 15921 ft 232 kts 268°
2026-05-07 11:55 30.56862 -85.35713 15920 ft 232 kts 268°
2026-05-07 11:55 30.56808 -85.37588 15919 ft 232 kts 268°
2026-05-07 11:56 30.56753 -85.39469 15918 ft 232 kts 268°
2026-05-07 11:56 30.56700 -85.41322 15918 ft 232 kts 268°
2026-05-07 11:56 30.56645 -85.43205 15917 ft 232 kts 268°
2026-05-07 11:56 30.56590 -85.45071 15916 ft 232 kts 268°
2026-05-07 11:57 30.56535 -85.46947 15915 ft 232 kts 268°
2026-05-07 11:57 30.56479 -85.48820 15915 ft 232 kts 268°
2026-05-07 11:57 30.56424 -85.50668 15914 ft 232 kts 268°
2026-05-07 11:57 30.56368 -85.52536 15914 ft 232 kts 268°
2026-05-07 11:58 30.56312 -85.54408 15913 ft 232 kts 268°
2026-05-07 11:58 30.56255 -85.56280 15913 ft 232 kts 268°
2026-05-07 11:58 30.56199 -85.58147 15912 ft 232 kts 268°
2026-05-07 11:58 30.56142 -85.60016 15911 ft 232 kts 268°
2026-05-07 11:59 30.56085 -85.61880 15912 ft 232 kts 268°
2026-05-07 11:59 30.56028 -85.63751 15908 ft 232 kts 268°
2026-05-07 11:59 30.55969 -85.65623 15907 ft 232 kts 267°
2026-05-07 11:59 30.55910 -85.67520 15907 ft 233 kts 267°
2026-05-07 12:00 30.55852 -85.69401 15901 ft 233 kts 267°
2026-05-07 12:00 30.55793 -85.71285 15900 ft 234 kts 267°
2026-05-07 12:00 30.55734 -85.73151 15899 ft 234 kts 267°
2026-05-07 12:00 30.55675 -85.75026 15899 ft 234 kts 267°
2026-05-07 12:01 30.55615 -85.76930 15899 ft 234 kts 267°
2026-05-07 12:01 30.55555 -85.78803 15899 ft 234 kts 267°
2026-05-07 12:01 30.55494 -85.80693 15898 ft 234 kts 267°
2026-05-07 12:01 30.55434 -85.82557 15898 ft 234 kts 267°
2026-05-07 12:02 30.55373 -85.84452 15898 ft 233 kts 267°
2026-05-07 12:02 30.55312 -85.86318 15898 ft 233 kts 267°
2026-05-07 12:02 30.55251 -85.88198 15898 ft 233 kts 267°
2026-05-07 12:02 30.55189 -85.90086 15897 ft 233 kts 267°
2026-05-07 12:03 30.55128 -85.91952 15897 ft 233 kts 267°
2026-05-07 12:03 30.55065 -85.93841 15897 ft 233 kts 267°
2026-05-07 12:03 30.55002 -85.95734 15896 ft 233 kts 267°
2026-05-07 12:03 30.54940 -85.97611 15896 ft 233 kts 267°
2026-05-07 12:04 30.54877 -85.99486 15895 ft 233 kts 267°
2026-05-07 12:04 30.54813 -86.01370 15893 ft 233 kts 267°
2026-05-07 12:04 30.54771 -86.02618 15892 ft 233 kts 267°
2026-05-07 12:04 30.54686 -86.05128 15889 ft 233 kts 267°
2026-05-07 12:05 30.54622 -86.07001 15888 ft 233 kts 267°
2026-05-07 12:05 30.54558 -86.08881 15888 ft 233 kts 267°
2026-05-07 12:05 30.54494 -86.10753 15887 ft 233 kts 267°
2026-05-07 12:05 30.54429 -86.12623 15887 ft 233 kts 267°
2026-05-07 12:06 30.54364 -86.14498 15887 ft 233 kts 267°
2026-05-07 12:06 30.54298 -86.16320 15877 ft 216 kts 267°
2026-05-07 12:06 30.54242 -86.17985 15872 ft 194 kts 267°
2026-05-07 12:06 30.54191 -86.19476 15841 ft 175 kts 268°
2026-05-07 12:07 30.54145 -86.20842 15586 ft 170 kts 267°
2026-05-07 12:07 30.54097 -86.22205 15187 ft 172 kts 267°
2026-05-07 12:07 30.54047 -86.23611 14779 ft 177 kts 267°
2026-05-07 12:07 30.53996 -86.25055 14370 ft 182 kts 267°
2026-05-07 12:08 30.53962 -86.26032 14053 ft 185 kts 267°
2026-05-07 12:08 30.53908 -86.27530 13574 ft 190 kts 267°
2026-05-07 12:08 30.53834 -86.29582 12932 ft 195 kts 267°
2026-05-07 12:08 30.53778 -86.31162 12445 ft 197 kts 267°
2026-05-07 12:09 30.53720 -86.32758 11954 ft 199 kts 266°
2026-05-07 12:09 30.53662 -86.34359 11466 ft 201 kts 266°
2026-05-07 12:09 30.53603 -86.35980 11010 ft 201 kts 266°
2026-05-07 12:09 30.53545 -86.37580 10571 ft 201 kts 266°
2026-05-07 12:10 30.53485 -86.39207 10120 ft 201 kts 266°
2026-05-07 12:10 30.53424 -86.40832 9671 ft 202 kts 266°
2026-05-07 12:10 30.53365 -86.42439 9229 ft 202 kts 266°
2026-05-07 12:10 30.53305 -86.44057 8786 ft 203 kts 266°
2026-05-07 12:11 30.53244 -86.45709 8340 ft 204 kts 266°
2026-05-07 12:11 30.53183 -86.47360 7897 ft 204 kts 266°
2026-05-07 12:11 30.53122 -86.48999 7460 ft 205 kts 266°
2026-05-07 12:11 30.53060 -86.50645 7024 ft 207 kts 266°
2026-05-07 12:12 30.52997 -86.52324 6584 ft 208 kts 266°
2026-05-07 12:12 30.52935 -86.53982 6151 ft 208 kts 265°
2026-05-07 12:12 30.52892 -86.55099 5860 ft 209 kts 265°
2026-05-07 12:12 30.52807 -86.57343 5276 ft 209 kts 265°
2026-05-07 12:13 30.52744 -86.59008 4842 ft 210 kts 265°
2026-05-07 12:13 30.52701 -86.60129 4550 ft 210 kts 265°
2026-05-07 12:13 30.52615 -86.62380 3964 ft 210 kts 265°
2026-05-07 12:13 30.52549 -86.64081 3521 ft 210 kts 265°
2026-05-07 12:14 30.52505 -86.65217 3226 ft 210 kts 264°
2026-05-07 12:14 30.52417 -86.67468 2650 ft 211 kts 264°
2026-05-07 12:14 30.52349 -86.69172 2293 ft 209 kts 264°
2026-05-07 12:14 30.52287 -86.70808 2225 ft 199 kts 264°
2026-05-07 12:15 30.52223 -86.72450 2228 ft 200 kts 263°
2026-05-07 12:15 30.52162 -86.74007 2216 ft 188 kts 264°
2026-05-07 12:15 30.52129 -86.75005 2217 ft 180 kts 262°
2026-05-07 12:15 30.52073 -86.76408 2218 ft 171 kts 262°
2026-05-07 12:16 30.52000 -86.78200 2219 ft 164 kts 262°
2026-05-07 12:16 30.51942 -86.79604 2234 ft 183 kts 263°
2026-05-07 12:16 30.51879 -86.81115 2228 ft 194 kts 263°
2026-05-07 12:16 30.51813 -86.82725 2224 ft 202 kts 264°
2026-05-07 12:17 30.51751 -86.84358 2225 ft 207 kts 263°
2026-05-07 12:17 30.51683 -86.86052 2222 ft 210 kts 263°
2026-05-07 12:17 30.51613 -86.87761 2220 ft 213 kts 264°
2026-05-07 12:17 30.51566 -86.88904 2219 ft 214 kts 264°
2026-05-07 12:18 30.51477 -86.91206 2220 ft 214 kts 263°
2026-05-07 12:18 30.51404 -86.92923 2217 ft 215 kts 264°
2026-05-07 12:18 30.51335 -86.94663 2216 ft 215 kts 263°
2026-05-07 12:18 30.51267 -86.96316 2207 ft 196 kts 264°
2026-05-07 12:19 30.51192 -86.97327 2188 ft 182 kts 255°
2026-05-07 12:19 30.50940 -86.98727 2086 ft 172 kts 255°
2026-05-07 12:19 30.50616 -87.00513 1859 ft 167 kts 253°
2026-05-07 12:19 30.50381 -87.01811 1735 ft 161 kts 255°
2026-05-07 12:20 30.50157 -87.03040 1712 ft 151 kts 253°
2026-05-07 12:20 30.49943 -87.04200 1706 ft 143 kts 254°
2026-05-07 12:20 30.49744 -87.05296 1698 ft 136 kts 254°
2026-05-07 12:20 30.49557 -87.06345 1704 ft 126 kts 252°
2026-05-07 12:21 30.49391 -87.07261 1695 ft 106 kts 253°
2026-05-07 12:21 30.49254 -87.08014 1682 ft 87 kts 255°
2026-05-07 12:21 30.49093 -87.08869 1756 ft 117 kts 253°
2026-05-07 12:21 30.48924 -87.09795 1711 ft 120 kts 255°
2026-05-07 12:22 30.48749 -87.10756 1555 ft 120 kts 253°
2026-05-07 12:22 30.48581 -87.11693 1359 ft 116 kts 253°
2026-05-07 12:22 30.48417 -87.12588 1152 ft 108 kts 253°
2026-05-07 12:22 30.48265 -87.13413 867 ft 102 kts 254°
2026-05-07 12:23 30.48147 -87.14198 607 ft 100 kts 261°
2026-05-07 12:23 30.48063 -87.15108 554 ft 119 kts 255°
2026-05-07 12:23 30.47849 -87.15970 444 ft 104 kts 252°
2026-05-07 12:23 30.47679 -87.16768 261 ft 102 kts 251°
2026-05-07 12:24 30.47520 -87.17548 133 ft 95 kts 252°
2026-05-07 12:24 30.47382 -87.18196 105 ft 64 kts 255°
2026-05-07 12:24 30.47308 -87.18527 102 ft 28 kts 248°
2026-05-07 12:24 30.47285 -87.18674 100 ft 14 kts 266°
2026-05-07 12:25 30.47260 -87.18769 99 ft 11 kts 200°
2026-05-07 12:25 30.47188 -87.18756 98 ft 12 kts 135°
2026-05-07 12:25 30.47196 -87.18648 99 ft 12 kts 77°
2026-05-07 12:25 30.47222 -87.18502 101 ft 13 kts 82°
2026-05-07 12:26 30.47182 -87.18475 101 ft 7 kts 216°
2026-05-07 12:26 30.47180 -87.18478 101 ft 0 kts 236°
2026-05-07 12:26 30.47106 -87.18462 100 ft 19 kts 149°
2026-05-07 12:26 30.46999 -87.18417 100 ft 13 kts 162°
2026-05-07 12:27 30.46969 -87.18344 100 ft 16 kts 83°
2026-05-07 12:27 30.46968 -87.18260 101 ft 2 kts 108°
2026-05-07 12:27 30.46968 -87.18230 101 ft 0 kts 79°